Content
SEND FEEDBACK

Daily
Averages
Monthly
Summary
United States of America

SULPHUR, LOUISIANA


Home > North America > United States > Louisiana
Elevation: 10 feet     Latitude: 30 13N     Longitude: 093 23W

WEATHER
 
SELECT A DAY
Number of Records: 193,247;   Date Range: 11/22/06 - 9/28/14
 
SHARE

PRINT THIS DATA

[ ← Previous Day ]
WEATHER ALMANAC - JULY 28, 2013
[ Next Day → ]
[ °C ]   °F
Weather ElementAverageHighLow
Temperature80.9 °F88 °F (5:35 pm)76.6 °F (4:35 am)
Dewpoint75.2 °F77.2 °F (10:35 pm)73 °F (7:55 am)
Humidity83.3 %96 % (11:55 pm)64 % (6:15 pm)
Barometer29.97 in30.01 in (11:35 am)29.92 in (3:55 am)
Wind Speed4.3 mph11.5 mph (4:55 pm)
Weather ElementAverage
Visibility9.9 mi
Wind DirectionENE (78.7 °)

Weather ElementTotal
Precipitation---
Cooling Degree Days17.3 (Base 65)
Growing Degree Days32.3 (Base 50)
Averaged from 71 records on July 28, 2013
WEATHER CONDITIONS BREAKOUT
WIND DIRECTION BREAKOUT
WEATHER BY HOUR - JULY 28, 2013
[ °C ]   °F
Local TimeTemperatureDewpointHumidityBarometerVisibilityWind DirectionWind SpeedGust SpeedPrecipitationEventsConditions
12:35 AM78.3 °F74.1 °F87 %29.94 in10.0 miCalmScattered Clouds
12:55 AM77.9 °F73.8 °F87 %29.94 in10.0 miNNE (20°)4.6 mphClear
1:15 AM77.9 °F73.8 °F87 %29.94 in10.0 miNNE (20°)4.6 mphScattered Clouds
1:35 AM78.8 °F73.4 °F83 %29.94 in10.0 miNE (50°)4.6 mphMostly Cloudy
1:55 AM78.4 °F73.4 °F84 %29.93 in10.0 miNE (40°)3.5 mphOvercast
2:15 AM78.1 °F73.4 °F85 %29.93 in10.0 miNE (40°)5.8 mphOvercast
2:35 AM77.7 °F73.4 °F86 %29.93 in10.0 miENE (60°)3.5 mphScattered Clouds
2:55 AM77.7 °F73.2 °F86 %29.93 in10.0 miENE (60°)4.6 mphMostly Cloudy
3:15 AM77.9 °F73.4 °F86 %29.93 in10.0 miENE (60°)4.6 mphThunderstormOvercast
3:35 AM77.9 °F73.4 °F86 %29.93 in10.0 miCalmOvercast
3:55 AM77.9 °F73.4 °F86 %29.92 in10.0 miENE (70°)6.9 mphOvercast
4:15 AM77.2 °F73.2 °F88 %29.92 in10.0 miCalmMostly Cloudy
4:35 AM76.6 °F73.4 °F90 %29.93 in10.0 miCalmScattered Clouds
4:55 AM77.0 °F73.8 °F90 %29.94 in10.0 miCalmMostly Cloudy
5:15 AM77.0 °F74.1 °F91 %29.94 in10.0 miENE (60°)4.6 mphOvercast
5:35 AM77.0 °F73.9 °F90 %29.95 in10.0 miENE (70°)5.8 mphOvercast
5:55 AM77.2 °F73.9 °F90 %29.95 in10.0 miENE (60°)5.8 mphOvercast
6:15 AM77.4 °F73.8 °F89 %29.96 in10.0 miNE (50°)5.8 mphOvercast
6:35 AM77.5 °F73.9 °F89 %29.96 in10.0 miNE (50°)6.9 mphOvercast
6:55 AM77.4 °F73.4 °F88 %29.96 in10.0 miENE (60°)8.1 mphOvercast
7:15 AM77.4 °F73.4 °F88 %29.96 in10.0 miNE (50°)6.9 mphOvercast
7:35 AM77.9 °F73.4 °F86 %29.96 in10.0 miNE (50°)4.6 mphOvercast
7:55 AM77.9 °F73.0 °F85 %29.96 in10.0 miEast (80°)5.8 mphOvercast
8:15 AM78.3 °F73.4 °F85 %29.97 in10.0 miEast (90°)4.6 mphOvercast
8:35 AM78.6 °F73.8 °F85 %29.98 in10.0 miSE (130°)4.6 mphOvercast
8:55 AM79.2 °F74.1 °F84 %29.98 in10.0 miEast (90°)5.8 mphOvercast
9:15 AM79.0 °F74.5 °F86 %29.99 in10.0 miESE (120°)5.8 mphRainRain
9:35 AM78.3 °F75.4 °F91 %29.98 in10.0 miEast (100°)4.6 mphLight Drizzle
9:55 AM78.8 °F76.1 °F91 %29.99 in10.0 miEast (80°)6.9 mphMostly Cloudy
10:15 AM81.3 °F76.5 °F85 %29.99 in10.0 miEast (90°)5.8 mphMostly Cloudy
10:35 AM81.7 °F76.8 °F85 %30.00 in10.0 miESE (110°)5.8 mphScattered Clouds
10:55 AM81.7 °F76.6 °F85 %30.00 in10.0 miEast (80°)4.6 mphMostly Cloudy
11:15 AM82.8 °F76.8 °F82 %30.00 in10.0 miEast (80°)4.6 mphMostly Cloudy
11:35 AM82.6 °F76.6 °F82 %30.01 in10.0 miEast (100°)4.6 mphMostly Cloudy
11:55 AM82.9 °F77.0 °F82 %30.00 in10.0 miEast (100°)5.8 mphRainLight Rain
12:15 PM84.2 °F76.1 °F77 %30.00 in10.0 miSE (130°)3.5 mphScattered Clouds
12:35 PM85.3 °F76.3 °F74 %29.99 in10.0 miESE (120°)4.6 mphMostly Cloudy
12:55 PM86.0 °F75.2 °F70 %29.99 in10.0 miENE (60°)3.5 mphScattered Clouds
1:15 PM86.4 °F75.7 °F70 %29.98 in10.0 miEast (80°)3.5 mphMostly Cloudy
1:35 PM87.1 °F76.1 °F70 %29.98 in10.0 miENE (70°)4.6 mphMostly Cloudy
1:55 PM87.4 °F75.7 °F68 %29.98 in10.0 miCalmThunderstormScattered Clouds
2:15 PM81.0 °F75.6 °F84 %29.99 in10.0 miSouth (180°)8.1 mphMostly Cloudy
2:35 PM80.6 °F76.8 °F88 %29.98 in10.0 miSouth (170°)10.4 mphOvercast
2:55 PM83.5 °F76.6 °F80 %29.98 in10.0 miSSE (160°)5.8 mphMostly Cloudy
3:15 PM83.7 °F76.8 °F80 %29.97 in10.0 miSSE (160°)9.2 mphScattered Clouds
3:35 PM84.6 °F76.5 °F77 %29.98 in10.0 miSE (140°)6.9 mphClear
3:55 PM84.2 °F76.1 °F77 %29.97 in10.0 miSE (140°)5.8 mphScattered Clouds
4:15 PM84.2 °F75.4 °F75 %29.97 in10.0 miSSE (160°)10.4 mphThunderstormScattered Clouds
4:35 PM85.8 °F75.7 °F72 %29.96 in10.0 miSSE (160°)6.9 mphThunderstormClear
4:55 PM86.5 °F75.4 °F69 %29.97 in10.0 miSSE (160°)11.5 mphScattered Clouds
5:15 PM85.5 °F74.8 °F70 %29.96 in10.0 miSSW (200°)3.5 mphScattered Clouds
5:35 PM88.0 °F76.1 °F68 %29.96 in10.0 miSSW (210°)5.8 mphScattered Clouds
5:55 PM87.8 °F75.0 °F66 %29.96 in10.0 miSSW (200°)8.1 mphScattered Clouds
6:15 PM87.8 °F74.5 °F64 %29.96 in10.0 miSW (220°)9.2 mphClear
6:35 PM86.7 °F75.0 °F68 %29.95 in10.0 miSSW (210°)5.8 mphClear
6:55 PM85.8 °F75.6 °F71 %29.95 in10.0 miSouth (190°)4.6 mphClear
7:15 PM84.6 °F75.9 °F75 %29.96 in10.0 miWSW (250°)8.1 mphScattered Clouds
7:35 PM82.4 °F75.7 °F80 %29.97 in10.0 miCalmClear
7:55 PM81.1 °F75.4 °F83 %29.97 in10.0 miCalmClear
8:15 PM80.6 °F75.6 °F85 %29.96 in10.0 miCalmClear
8:35 PM79.7 °F76.5 °F90 %29.97 in10.0 miCalmClear
8:55 PM79.0 °F76.5 °F92 %29.97 in10.0 miCalmClear
9:15 PM78.8 °F76.5 °F92 %29.98 in10.0 miCalmClear
9:35 PM79.0 °F77.0 °F94 %29.98 in10.0 miEast (100°)3.5 mphClear
9:55 PM79.7 °F77.0 °F91 %29.99 in10.0 miCalmClear
10:15 PM79.2 °F76.5 °F91 %30.00 in10.0 miCalmClear
10:35 PM79.5 °F77.2 °F93 %30.01 in10.0 miCalmClear
10:55 PM78.8 °F77.0 °F94 %30.01 in10.0 miCalmClear
11:15 PM79.2 °F77.2 °F94 %30.01 in10.0 miCalmClear
11:35 PM78.8 °F77.2 °F95 %30.01 in7.0 miCalmClear
11:55 PM77.7 °F76.6 °F96 %30.01 in5.0 miCalmClear
Hourly data recorded from KUXL, located miles away from Sulphur, Louisiana







STORIES FROM OUR PARTNERS